Regional Weather Roundup
Issued by NWS Kansas City/Pleasant Hill, MO

Current Version | Previous Version | Text Only | Print | Product List | Glossary On
Versions: 1 2 3 4 5 6 7 8 9 10 11 12 13 14 15 16 17 18 19 20 21 22 23 24 25 26 27 28 29 30 31 32 33 34 35 36 37 38 39 40 41 42 43 44 45 46 47 48 49 50
000
ASUS43 KEAX 210504
RWREAX

WEATHER ROUNDUP FOR EASTERN KANSAS AND NORTHWEST MISSOURI
NATIONAL WEATHER SERVICE KANSAS CITY/PLEASANT HILL MO
1200 AM CDT MON APR 21 2014

KSZ040-057-103>105-MOZ028-029-037-043-210600-
...KANSAS CITY METROPOLITAN AREA...

CITY           SKY/WX    TMP DP  RH WIND       PRES   REMARKS
K.C. INTL      CLOUDY    63  55  75 S8        30.01F
K.C. DOWNTOWN  CLOUDY    67  55  65 S5        30.00F
LEES SUMMIT    CLOUDY    66  53  63 S6        30.02F
OLATHE - IXD   CLOUDY    63  54  72 S6        30.02F
OLATHE - OJC   CLOUDY    63  54  72 S3        30.01F
LAWRENCE       CLOUDY    64  56  75 SE5       30.01F

$$

MOZ001>008-011>017-020>025-030>033-038>040-044>046-053-054-210600-
...NORTHERN AND CENTRAL MISSOURI...

CITY           SKY/WX    TMP DP  RH WIND       PRES   REMARKS
ST. JOSEPH     CLOUDY    64  55  72 S5        29.99F
MOSBY          CLOUDY    64  55  72 CALM      30.01F
WHITEMAN AFB   CLOUDY    64  51  63 S5        30.01F
CLINTON        MOCLDY    61  55  82 CALM      30.03F
SEDALIA        CLOUDY    66  54  65 SW3       30.03F
WARSAW         NOT AVBL
MARSHALL         N/A     68  55  64 CALM      30.03S
CHILLICOTHE      N/A     68  53  58 CALM      30.01F
MOBERLY        CLOUDY    66  50  55 SW6       30.03S
KIRKSVILLE     CLOUDY    69  51  52 W8        30.01F

$$

MOZ041-047>049-056>058-063>065-088>090-097-210600-
...EASTERN AND SOUTHERN MISSOURI...

CITY           SKY/WX    TMP DP  RH WIND       PRES   REMARKS
ST. LOUIS INTL CLOUDY    72  43  35 S8        30.04S
SPIRIT OF STL  CLOUDY    71  40  32 S7        30.02F
COLUMBIA       CLOUDY    67  50  54 W5        30.03S
JEFFERSON CITY CLOUDY    64  53  67 CALM      30.02F
MEXICO         CLOUDY    63  50  63 SW3       30.02F
HANNIBAL       CLOUDY    70  45  40 CALM      30.01F
ROLLA          CLOUDY    66  47  50 S9        30.03F
LEBANON        CLOUDY    63  48  59 S5        30.05F
OSAGE BEACH    CLOUDY    64  48  55 CALM      30.04F
SPRINGFIELD    MOCLDY    60  50  69 SE5       30.04F
BRANSON        PTCLDY    66  50  55 S3        30.06F
JOPLIN         CLOUDY    62  52  69 SE5       30.03F
WEST PLAINS    PTCLDY    64  46  52 S6        30.08F

$$

IAZ060-094-KSZ022-034>040-054-083-096-NEZ052-066-093-210600-
...KANSAS...SOUTHEAST NEBRASKA AND IOWA...

CITY           SKY/WX    TMP DP  RH WIND       PRES   REMARKS
TOPEKA         CLOUDY    65  58  78 SE5       29.99F
MANHATTAN      CLOUDY    63  57  81 SW5       29.98S
EMPORIA        CLOUDY    63  54  72 S9        30.00S
CHANUTE        CLOUDY    63  55  75 S3        30.02S
WICHITA        MOCLDY    61  54  77 S12       29.97F
OMAHA          CLOUDY    62  58  86 S10       29.95F
LINCOLN        MOCLDY    59  54  83 S6        29.96F
FALLS CITY     CLOUDY    65  58  78 S7        29.96F
LAMONI         CLOUDY    66  53  63 SW9       29.98F
DES MOINES     CLOUDY    67  54  63 W6        29.97S

$$




USA.gov is the U.S. government's official web portal to all federal, state and local government web resources and services.